Погода в Чунбоне

Южная Корея     37°28′27″N   128°36′36″E
темп.,
°C
ветер,
м/с
пор.,
м/с
влажн.,
%
обл.,
%
осадки,
мм/ч
давл.,
гПа
погр.,
м
12 апреля, пн
пн1200:00+9ю1162100 0.0 102810
03:00+8юв1162100 0.0 102611
06:00+8ююв1162100 0.0 102511
09:00+11ю1246100 0.0 1023266
12:00+13ююз4630100 0.0 10221278
15:00+8юв2581100 1.0 1020371
18:00+8ююв31593100 3.8 10151200
21:00+9ю31794100 8.6 10121312
13 апреля, вт
вт1300:00+9юз21099100 5.9 1009657
03:00+9юз31298100 9.4 10071170
06:00+9зюз31098100 1.3 10071086
09:00+8зюз3995100 1.9 1010825
12:00+10з5117937 0.1 10101179
15:00+12з7124949 0.2 10091484
18:00+8з51050100 0.0 10121268
21:00+3зюз2267100 0.0 101641
14 апреля, ср
ср1400:00+1зюз117459 0.0 101726
03:000зсз11775 0.0 101821
06:00−1сз11741 0.0 101912
09:00+6зсз13430 0.0 1019821
12:00+9з512310 0.0 10172116
15:00+10зсз610280 0.0 10162049
18:00+8з48460 0.0 10171404
21:00+3зюз11690 0.0 102021
15 апреля, чт
чт1500:00+1зюз11750 0.0 102110
03:000зюз11790 0.0 102110
06:000з11810 0.0 102210
09:00+8юз1145100 0.0 1020520
12:00+11зюз233574 0.0 10181247
15:00+13юз23320 0.0 10151490
18:00+10зюз47430 0.0 1016770
21:00+5ю116086 0.0 101710
16 апреля, пт
пт1600:00+4юз2367100 0.0 101750
03:00+5зюз51456100 0.0 10161040
06:00+4юз3116920 0.1 1016727
09:00+7зюз5116717 0.1 10151042
12:00+12зюз712433 0.0 10141615
15:00+12зюз711290 0.0 10131789
18:00+10зюз59392 0.0 10141157
21:00+5ююз22610 0.0 101618